,,PA_Meas_PMT16A,,PR_Meas_QMR101_102,,RH_Meas_QMH101,,SR_Meas_QMS101,,TA_Meas_QMH101,,GenWind,,GenWind,
time,status,PA,status,PR,status,RH,status,SR,status,TA,status,DirAvg,status,SpdAvg,
2010-06-20, 00:00:05,VALID,918.154,VALID,0,VALID,97.5873,VALID,0,VALID,19.2933,VALID,119,VALID,0.326953,
2010-06-20, 00:01:05,VALID,918.167,VALID,0,VALID,97.595,VALID,0,VALID,19.2543,VALID,119,VALID,0,
2010-06-20, 00:02:05,VALID,918.183,VALID,0,VALID,97.5797,VALID,0,VALID,19.2543,VALID,119,VALID,0,
2010-06-20, 00:03:05,VALID,918.165,VALID,0,VALID,97.5873,VALID,0,VALID,19.2543,VALID,119,VALID,0,
2010-06-20, 00:04:05,VALID,918.17,VALID,0,VALID,97.6178,VALID,0,VALID,19.2933,VALID,119,VALID,0.452734,
2010-06-20, 00:05:05,VALID,918.193,VALID,0,VALID,97.6026,VALID,0,VALID,19.3128,VALID,119,VALID,0.715625,
2010-06-20, 00:06:05,VALID,918.207,VALID,0,VALID,97.595,VALID,0,VALID,19.2543,VALID,119,VALID,1.24609,
2010-06-20, 00:07:05,VALID,918.212,VALID,0,VALID,97.5873,VALID,0,VALID,19.1763,VALID,119,VALID,1.01484,
2010-06-20, 00:08:05,VALID,918.208,VALID,0,VALID,97.5873,VALID,0,VALID,19.1373,VALID,119,VALID,0.810156,
2010-06-20, 00:09:05,VALID,918.244,VALID,0,VALID,97.595,VALID,0,VALID,19.0969,VALID,119,VALID,0.575,
2010-06-20, 00:10:05,VALID,918.234,VALID,0,VALID,97.595,VALID,0,VALID,19.1178,VALID,119,VALID,0.529688,
2010-06-20, 00:11:05,VALID,918.228,VALID,0,VALID,97.5873,VALID,0,VALID,19.1373,VALID,119,VALID,0.822656,
2010-06-20, 00:12:05,VALID,918.235,VALID,0,VALID,97.5873,VALID,0,VALID,19.1178,VALID,119,VALID,0.978125,
2010-06-20, 00:13:05,VALID,918.221,VALID,0,VALID,97.595,VALID,0,VALID,19.1373,VALID,47,VALID,0.805078,
2010-06-20, 00:14:05,VALID,918.219,VALID,0,VALID,97.595,VALID,0,VALID,19.1568,VALID,47,VALID,0.940234,
2010-06-20, 00:15:05,VALID,918.214,VALID,0,VALID,97.5797,VALID,0,VALID,19.1958,VALID,47,VALID,0.858203,
2010-06-20, 00:16:05,VALID,918.185,VALID,0,VALID,97.595,VALID,0,VALID,19.2348,VALID,47,VALID,0.961328,
2010-06-20, 00:17:05,VALID,918.182,VALID,0,VALID,97.6026,VALID,0,VALID,19.2348,VALID,47,VALID,0.975391,
2010-06-20, 00:18:05,VALID,918.172,VALID,0,VALID,97.5797,VALID,0,VALID,19.2528,VALID,47,VALID,1.34336,
2010-06-20, 00:19:05,VALID,918.199,VALID,0,VALID,97.6026,VALID,0,VALID,19.3128,VALID,47,VALID,0.974219,
2010-06-20, 00:20:05,VALID,918.205,VALID,0,VALID,97.5873,VALID,0,VALID,19.3323,VALID,47,VALID,0.876953,
2010-06-20, 00:21:05,VALID,918.169,VALID,0,VALID,97.5873,VALID,0,VALID,19.3908,VALID,47,VALID,0.513672,
2010-06-20, 00:22:05,VALID,918.196,VALID,0,VALID,97.595,VALID,0,VALID,19.4103,VALID,47,VALID,0.346484,
2010-06-20, 00:23:05,VALID,918.181,VALID,0,VALID,97.6026,VALID,0,VALID,19.4493,VALID,47,VALID,0.788281,
2010-06-20, 00:24:05,VALID,918.206,VALID,0,VALID,97.5797,VALID,0,VALID,19.4883,VALID,47,VALID,0.455078,
2010-06-20, 00:25:05,VALID,918.2,VALID,0,VALID,97.5721,VALID,0,VALID,19.4673,VALID,47,VALID,0.432422,
2010-06-20, 00:26:05,VALID,918.203,VALID,0,VALID,97.5797,VALID,0,VALID,19.4883,VALID,47,VALID,0.353125,
2010-06-20, 00:27:05,VALID,918.202,VALID,0,VALID,97.5873,VALID,0,VALID,19.4868,VALID,47,VALID,0.429688,
2010-06-20, 00:28:05,VALID,918.191,VALID,0,VALID,97.5721,VALID,0,VALID,19.5273,VALID,47,VALID,0.653125,
2010-06-20, 00:29:05,VALID,918.219,VALID,0,VALID,97.5416,VALID,0,VALID,19.5273,VALID,47,VALID,0.846484,
2010-06-20, 00:30:05,VALID,918.208,VALID,0,VALID,97.5492,VALID,0,VALID,19.5468,VALID,47,VALID,0.471094,
2010-06-20, 00:31:05,VALID,918.189,VALID,0,VALID,97.5645,VALID,0,VALID,19.5078,VALID,47,VALID,0.55,
2010-06-20, 00:32:05,VALID,918.224,VALID,0,VALID,97.5645,VALID,0,VALID,19.4493,VALID,47,VALID,0.776563,
2010-06-20, 00:33:05,VALID,918.171,VALID,0,VALID,97.5721,VALID,0,VALID,19.4298,VALID,47,VALID,0.438281,
2010-06-20, 00:34:05,VALID,918.189,VALID,0,VALID,97.5645,VALID,0,VALID,19.4283,VALID,47,VALID,0.569531,
2010-06-20, 00:35:05,VALID,918.146,VALID,0,VALID,97.5797,VALID,0,VALID,19.4103,VALID,47,VALID,0.473828,
2010-06-20, 00:36:05,VALID,918.127,VALID,0,VALID,97.5416,VALID,0,VALID,19.4103,VALID,47,VALID,0.656641,
2010-06-20, 00:37:05,VALID,918.129,VALID,0,VALID,97.5721,VALID,0,VALID,19.3698,VALID,47,VALID,0.353516,
2010-06-20, 00:38:05,VALID,918.135,VALID,0,VALID,97.5492,VALID,0,VALID,19.4103,VALID,47,VALID,0.276953,
2010-06-20, 00:39:05,VALID,918.098,VALID,0,VALID,97.5721,VALID,0,VALID,19.4298,VALID,47,VALID,0.216797,
2010-06-20, 00:40:05,VALID,918.101,VALID,0,VALID,97.5721,VALID,0,VALID,19.4298,VALID,47,VALID,0.260156,
2010-06-20, 00:41:05,VALID,918.068,VALID,0,VALID,97.5721,VALID,0,VALID,19.4493,VALID,47,VALID,0.494531,
2010-06-20, 00:42:05,VALID,918.103,VALID,0,VALID,97.5645,VALID,0,VALID,19.4493,VALID,47,VALID,0.219922,
2010-06-20, 00:43:05,VALID,918.043,VALID,0,VALID,97.5797,VALID,0,VALID,19.4493,VALID,47,VALID,0.492969,
2010-06-20, 00:44:05,VALID,918.021,VALID,0,VALID,97.5873,VALID,0,VALID,19.4688,VALID,47,VALID,0.0339844,
2010-06-20, 00:45:05,VALID,918.056,VALID,0,VALID,97.5721,VALID,0,VALID,19.4868,VALID,47,VALID,0.121875,
2010-06-20, 00:46:05,VALID,918.004,VALID,0,VALID,97.5721,VALID,0.107441,VALID,19.5063,VALID,47,VALID,0.333984,
2010-06-20, 00:47:05,VALID,917.986,VALID,0,VALID,97.5797,VALID,0.107441,VALID,19.5453,VALID,47,VALID,0.786328,
2010-06-20, 00:48:05,VALID,917.966,VALID,0,VALID,97.5569,VALID,0.107441,VALID,19.5453,VALID,47,VALID,0.468359,
2010-06-20, 00:49:05,VALID,917.946,VALID,0,VALID,97.5873,VALID,0.107441,VALID,19.5648,VALID,47,VALID,0.548047,
2010-06-20, 00:50:05,VALID,917.948,VALID,0,VALID,97.5645,VALID,0.107441,VALID,19.5453,VALID,47,VALID,0.288281,
2010-06-20, 00:51:05,VALID,917.9,VALID,0,VALID,97.5569,VALID,0.107441,VALID,19.5243,VALID,47,VALID,0.294141,
2010-06-20, 00:52:05,VALID,917.843,VALID,0,VALID,97.5416,VALID,0,VALID,19.5648,VALID,47,VALID,0.065625,
2010-06-20, 00:53:05,VALID,917.854,VALID,0,VALID,97.5492,VALID,0.107441,VALID,19.5843,VALID,47,VALID,0,
2010-06-20, 00:54:05,VALID,917.822,VALID,0,VALID,97.5264,VALID,0,VALID,19.5648,VALID,47,VALID,0,
2010-06-20, 00:55:05,VALID,917.813,VALID,0,VALID,97.5569,VALID,0,VALID,19.5648,VALID,47,VALID,0.219922,
2010-06-20, 00:56:05,VALID,917.774,VALID,0,VALID,97.5492,VALID,0,VALID,19.5453,VALID,47,VALID,0.405859,
2010-06-20, 00:57:05,VALID,917.768,VALID,0,VALID,97.5416,VALID,0.107441,VALID,19.5453,VALID,47,VALID,0.478125,
2010-06-20, 00:58:05,VALID,917.703,VALID,0,VALID,97.5492,VALID,0.107441,VALID,19.5243,VALID,47,VALID,0.841797,
2010-06-20, 00:59:05,VALID,917.727,VALID,0,VALID,97.5416,VALID,0,VALID,19.5048,VALID,47,VALID,0.880859,
2010-06-20, 01:00:05,VALID,917.663,VALID,0,VALID,97.5645,VALID,0,VALID,19.5468,VALID,47,VALID,1.14063,
2010-06-20, 01:01:05,VALID,917.669,VALID,0,VALID,97.5492,VALID,0,VALID,19.5663,VALID,47,VALID,0.972266,
2010-06-20, 01:02:05,VALID,917.687,VALID,0,VALID,97.5569,VALID,0,VALID,19.5858,VALID,47,VALID,0.483984,
2010-06-20, 01:03:05,VALID,917.682,VALID,0,VALID,97.5416,VALID,0,VALID,19.5858,VALID,47,VALID,0.00117188,
2010-06-20, 01:04:05,VALID,917.708,VALID,0,VALID,97.534,VALID,0,VALID,19.6053,VALID,47,VALID,0.562109,
2010-06-20, 01:05:05,VALID,917.734,VALID,0,VALID,97.5416,VALID,0,VALID,19.5858,VALID,47,VALID,0.404687,
2010-06-20, 01:06:05,VALID,917.707,VALID,0,VALID,97.5416,VALID,0,VALID,19.5858,VALID,47,VALID,0.405859,
2010-06-20, 01:07:05,VALID,917.736,VALID,0,VALID,97.5569,VALID,0,VALID,19.5858,VALID,47,VALID,0.0441406,
2010-06-20, 01:08:05,VALID,917.714,VALID,0,VALID,97.5569,VALID,0,VALID,19.5453,VALID,47,VALID,0,
2010-06-20, 01:09:05,VALID,917.691,VALID,0,VALID,97.5569,VALID,0,VALID,19.5858,VALID,47,VALID,0,
2010-06-20, 01:10:05,VALID,917.648,VALID,0,VALID,97.534,VALID,0,VALID,19.5663,VALID,47,VALID,0,
2010-06-20, 01:11:05,VALID,917.609,VALID,0,VALID,97.5416,VALID,0,VALID,19.5663,VALID,47,VALID,0.467578,
2010-06-20, 01:12:05,VALID,917.606,VALID,0,VALID,97.534,VALID,0,VALID,19.5078,VALID,47,VALID,0.691406,
2010-06-20, 01:13:05,VALID,917.592,VALID,0,VALID,97.5569,VALID,0,VALID,19.5078,VALID,47,VALID,0.850391,
2010-06-20, 01:14:05,VALID,917.582,VALID,0,VALID,97.5569,VALID,0,VALID,19.4883,VALID,47,VALID,0.858203,
2010-06-20, 01:15:05,VALID,917.588,VALID,0,VALID,97.5492,VALID,0,VALID,19.5078,VALID,47,VALID,0.536328,
2010-06-20, 01:16:05,VALID,917.59,VALID,0,VALID,97.5645,VALID,0,VALID,19.5078,VALID,47,VALID,0.488672,
2010-06-20, 01:17:05,VALID,917.582,VALID,0,VALID,97.5569,VALID,0,VALID,19.4868,VALID,182,VALID,0.692578,
2010-06-20, 01:18:05,VALID,917.561,VALID,0,VALID,97.5721,VALID,0,VALID,19.4673,VALID,182,VALID,0.704687,
2010-06-20, 01:19:05,VALID,917.546,VALID,0,VALID,97.5645,VALID,0,VALID,19.4868,VALID,182,VALID,0.444922,
2010-06-20, 01:20:05,VALID,917.526,VALID,0,VALID,97.5492,VALID,0,VALID,19.4673,VALID,182,VALID,0.420312,
2010-06-20, 01:21:05,VALID,917.511,VALID,0,VALID,97.5569,VALID,0,VALID,19.4883,VALID,182,VALID,0.405469,
2010-06-20, 01:22:05,VALID,917.502,VALID,0,VALID,97.5645,VALID,0,VALID,19.4298,VALID,182,VALID,0.813281,
2010-06-20, 01:23:05,VALID,917.466,VALID,0,VALID,97.5569,VALID,0,VALID,19.4088,VALID,171,VALID,0.680078,
2010-06-20, 01:24:05,VALID,917.4,VALID,0,VALID,97.5721,VALID,0,VALID,19.4298,VALID,160,VALID,0.609375,
2010-06-20, 01:25:05,VALID,917.398,VALID,0,VALID,97.5569,VALID,0,VALID,19.4493,VALID,160,VALID,0.467187,
2010-06-20, 01:26:05,VALID,917.386,VALID,0,VALID,97.5645,VALID,0,VALID,19.4103,VALID,160,VALID,0.381641,
2010-06-20, 01:27:05,VALID,917.383,VALID,0,VALID,97.595,VALID,0,VALID,19.4493,VALID,160,VALID,0.214844,
2010-06-20, 01:28:05,VALID,917.379,VALID,0,VALID,97.5873,VALID,0,VALID,19.4688,VALID,160,VALID,0.105469,
2010-06-20, 01:29:05,VALID,917.371,VALID,0,VALID,97.5873,VALID,0,VALID,19.4493,VALID,160,VALID,0.244922,
2010-06-20, 01:30:05,VALID,917.334,VALID,0,VALID,97.5873,VALID,0,VALID,19.4298,VALID,160,VALID,0.065625,
2010-06-20, 01:31:05,VALID,917.335,VALID,0,VALID,97.5873,VALID,0,VALID,19.3908,VALID,160,VALID,0.335547,
2010-06-20, 01:32:05,VALID,917.324,VALID,0,VALID,97.5721,VALID,0,VALID,19.3698,VALID,160,VALID,0.334766,
2010-06-20, 01:33:05,VALID,917.33,VALID,0,VALID,97.5873,VALID,0,VALID,19.3713,VALID,160,VALID,0.461719,
2010-06-20, 01:34:05,VALID,917.306,VALID,0,VALID,97.5797,VALID,0,VALID,19.3908,VALID,160,VALID,0.508203,
2010-06-20, 01:35:05,VALID,917.311,VALID,0,VALID,97.595,VALID,0,VALID,19.3908,VALID,160,VALID,0.645703,
2010-06-20, 01:36:05,VALID,917.316,VALID,0,VALID,97.5797,VALID,0,VALID,19.3908,VALID,160,VALID,0.771094,
2010-06-20, 01:37:05,VALID,917.315,VALID,0,VALID,97.6026,VALID,0,VALID,19.3908,VALID,160,VALID,0.517187,
2010-06-20, 01:38:05,VALID,917.311,VALID,0,VALID,97.595,VALID,0,VALID,19.3908,VALID,160,VALID,0.469531,
2010-06-20, 01:39:05,VALID,917.286,VALID,0,VALID,97.595,VALID,0,VALID,19.3503,VALID,160,VALID,0.625,
2010-06-20, 01:40:05,VALID,917.29,VALID,0,VALID,97.595,VALID,0,VALID,19.3713,VALID,160,VALID,0.746875,
2010-06-20, 01:41:05,VALID,917.264,VALID,0,VALID,97.595,VALID,0,VALID,19.3323,VALID,160,VALID,0.864453,
2010-06-20, 01:42:05,VALID,917.255,VALID,0,VALID,97.6102,VALID,0,VALID,19.3518,VALID,160,VALID,0.690234,
2010-06-20, 01:43:05,VALID,917.231,VALID,0,VALID,97.5873,VALID,0,VALID,19.3518,VALID,160,VALID,0.725781,
2010-06-20, 01:44:05,VALID,917.251,VALID,0,VALID,97.5873,VALID,0,VALID,19.3713,VALID,160,VALID,0.427344,
2010-06-20, 01:45:05,VALID,917.181,VALID,0,VALID,97.5645,VALID,0,VALID,19.3503,VALID,160,VALID,0.563281,
2010-06-20, 01:46:05,VALID,917.182,VALID,0,VALID,97.6026,VALID,0,VALID,19.3308,VALID,160,VALID,0.697266,
2010-06-20, 01:47:05,VALID,917.151,VALID,0,VALID,97.595,VALID,0,VALID,19.3323,VALID,160,VALID,0.923828,
2010-06-20, 01:48:05,VALID,917.119,VALID,0,VALID,97.6026,VALID,0.107441,VALID,19.3308,VALID,159,VALID,1.00039,
2010-06-20, 01:49:05,VALID,917.113,VALID,0,VALID,97.5721,VALID,0,VALID,19.3713,VALID,159,VALID,0.817578,
2010-06-20, 01:50:05,VALID,917.141,VALID,0,VALID,97.595,VALID,0,VALID,19.3713,VALID,159,VALID,0.914063,
2010-06-20, 01:51:05,VALID,917.101,VALID,0,VALID,97.5873,VALID,0,VALID,19.3518,VALID,159,VALID,1.2582,
2010-06-20, 01:52:05,VALID,917.1,VALID,0,VALID,97.6026,VALID,0,VALID,19.3518,VALID,132,VALID,1.125,
2010-06-20, 01:53:05,VALID,917.097,VALID,0,VALID,97.595,VALID,0,VALID,19.3518,VALID,146,VALID,1.06172,
2010-06-20, 01:54:05,VALID,917.052,VALID,0,VALID,97.5873,VALID,0,VALID,19.3113,VALID,146,VALID,0.721484,
2010-06-20, 01:55:05,VALID,917.047,VALID,0,VALID,97.5797,VALID,0,VALID,19.3113,VALID,151,VALID,1.0668,
2010-06-20, 01:56:05,VALID,917.012,VALID,0,VALID,97.5873,VALID,0,VALID,19.3323,VALID,162,VALID,1.30547,
2010-06-20, 01:57:05,VALID,917.001,VALID,0,VALID,97.5797,VALID,0,VALID,19.3323,VALID,133,VALID,0.629297,
2010-06-20, 01:58:05,VALID,917.009,VALID,0,VALID,97.6102,VALID,0,VALID,19.3323,VALID,133,VALID,1.23477,
2010-06-20, 01:59:05,VALID,916.992,VALID,0,VALID,97.5797,VALID,0,VALID,19.3128,VALID,191,VALID,0.978516,
2010-06-20, 02:00:05,VALID,916.981,VALID,0,VALID,97.6026,VALID,0,VALID,19.3113,VALID,131,VALID,1.09805,
2010-06-20, 02:01:05,VALID,916.984,VALID,0,VALID,97.595,VALID,0.107441,VALID,19.3113,VALID,154,VALID,0.746484,
2010-06-20, 02:02:05,VALID,917.004,VALID,0,VALID,97.6026,VALID,0,VALID,19.3308,VALID,142,VALID,0.623828,
2010-06-20, 02:03:05,VALID,916.985,VALID,0,VALID,97.6178,VALID,0,VALID,19.3503,VALID,163,VALID,0.915234,
2010-06-20, 02:04:05,VALID,917.029,VALID,0,VALID,97.6102,VALID,0.107441,VALID,19.3893,VALID,163,VALID,0.462891,
2010-06-20, 02:05:05,VALID,917.005,VALID,0,VALID,97.6102,VALID,0.107441,VALID,19.3893,VALID,163,VALID,0.654688,
2010-06-20, 02:06:05,VALID,916.977,VALID,0,VALID,97.595,VALID,0,VALID,19.3893,VALID,150,VALID,0.946094,
2010-06-20, 02:07:05,VALID,916.962,VALID,0,VALID,97.595,VALID,0,VALID,19.3503,VALID,147,VALID,0.84375,
2010-06-20, 02:08:05,VALID,916.918,VALID,0,VALID,97.6026,VALID,0,VALID,19.3713,VALID,107,VALID,0.975,
2010-06-20, 02:09:05,VALID,916.894,VALID,0,VALID,97.6102,VALID,0,VALID,19.3698,VALID,131,VALID,1.13437,
2010-06-20, 02:10:05,VALID,916.85,VALID,0,VALID,97.5873,VALID,0,VALID,19.3893,VALID,148,VALID,1.2625,
2010-06-20, 02:11:05,VALID,916.8,VALID,0,VALID,97.5873,VALID,0.107441,VALID,19.4283,VALID,148,VALID,1.13242,
2010-06-20, 02:12:05,VALID,916.772,VALID,0,VALID,97.5797,VALID,0.107441,VALID,19.4478,VALID,136,VALID,1.25859,
2010-06-20, 02:13:05,VALID,916.755,VALID,0,VALID,97.6026,VALID,0.107441,VALID,19.4868,VALID,151,VALID,1.46484,
2010-06-20, 02:14:05,VALID,916.747,VALID,0,VALID,97.5873,VALID,0,VALID,19.5063,VALID,134,VALID,1.21836,
2010-06-20, 02:15:05,VALID,916.749,VALID,0,VALID,97.5797,VALID,0,VALID,19.5273,VALID,130,VALID,0.764063,
2010-06-20, 02:16:05,VALID,916.724,VALID,0,VALID,97.5873,VALID,0,VALID,19.5663,VALID,173,VALID,0.887109,
2010-06-20, 02:17:05,VALID,916.744,VALID,0,VALID,97.5873,VALID,0,VALID,19.5858,VALID,145,VALID,0.745703,
2010-06-20, 02:18:05,VALID,916.751,VALID,0,VALID,97.5797,VALID,0,VALID,19.6053,VALID,132,VALID,1.26016,
2010-06-20, 02:19:05,VALID,916.751,VALID,0,VALID,97.5569,VALID,0,VALID,19.5858,VALID,135,VALID,1.94492,
2010-06-20, 02:20:05,VALID,916.753,VALID,0,VALID,97.5721,VALID,0,VALID,19.6248,VALID,140,VALID,1.49141,
2010-06-20, 02:21:05,VALID,916.743,VALID,0,VALID,97.5721,VALID,0,VALID,19.6638,VALID,143,VALID,1.88047,
2010-06-20, 02:22:05,VALID,916.711,VALID,0,VALID,97.5721,VALID,0,VALID,19.7028,VALID,138,VALID,2.05547,
2010-06-20, 02:23:05,VALID,916.65,VALID,0,VALID,97.5569,VALID,0,VALID,19.7418,VALID,159,VALID,1.47383,
2010-06-20, 02:24:05,VALID,916.626,VALID,0,VALID,97.5569,VALID,0,VALID,19.7613,VALID,141,VALID,1.51133,
2010-06-20, 02:25:05,VALID,916.586,VALID,0,VALID,97.5416,VALID,0,VALID,19.7613,VALID,134,VALID,1.91836,
2010-06-20, 02:26:05,VALID,916.562,VALID,0,VALID,97.534,VALID,0,VALID,19.7613,VALID,129,VALID,1.6082,
2010-06-20, 02:27:05,VALID,916.552,VALID,0,VALID,97.5416,VALID,0,VALID,19.7403,VALID,158,VALID,1.14531,
2010-06-20, 02:28:04,VALID,916.553,VALID,0,VALID,97.5492,VALID,0,VALID,19.7808,VALID,172,VALID,0.469141,
2010-06-20, 02:29:04,VALID,916.524,VALID,0,VALID,97.5416,VALID,0,VALID,19.7418,VALID,111,VALID,1.1457,
2010-06-20, 02:30:04,VALID,916.533,VALID,0,VALID,97.5492,VALID,0,VALID,19.6623,VALID,163,VALID,1.175,
2010-06-20, 02:31:04,VALID,916.525,VALID,0,VALID,97.5264,VALID,0,VALID,19.6443,VALID,84,VALID,0.846094,
2010-06-20, 02:32:04,VALID,916.538,VALID,0,VALID,97.5416,VALID,0,VALID,19.6443,VALID,167,VALID,1.61563,
2010-06-20, 02:33:04,VALID,916.495,VALID,0,VALID,97.5492,VALID,0,VALID,19.6623,VALID,136,VALID,1.7082,
2010-06-20, 02:34:04,VALID,916.481,VALID,0,VALID,97.5416,VALID,0,VALID,19.6833,VALID,140,VALID,1.9418,
2010-06-20, 02:35:04,VALID,916.468,VALID,0,VALID,97.5416,VALID,0,VALID,19.7223,VALID,145,VALID,1.6207,
2010-06-20, 02:36:04,VALID,916.448,VALID,0,VALID,97.5187,VALID,0,VALID,19.7223,VALID,141,VALID,1.90664,
2010-06-20, 02:37:04,VALID,916.419,VALID,0,VALID,97.5187,VALID,0,VALID,19.7613,VALID,167,VALID,1.65664,
2010-06-20, 02:38:04,VALID,916.383,VALID,0,VALID,97.5187,VALID,0,VALID,19.7598,VALID,137,VALID,0.864844,
2010-06-20, 02:39:04,VALID,916.375,VALID,0,VALID,97.5264,VALID,0,VALID,19.8003,VALID,164,VALID,2.07969,
2010-06-20, 02:40:04,VALID,916.345,VALID,0,VALID,97.5264,VALID,0,VALID,19.8198,VALID,164,VALID,0.628906,
2010-06-20, 02:41:04,VALID,916.36,VALID,0,VALID,97.5035,VALID,0,VALID,19.7988,VALID,164,VALID,0.496484,
2010-06-20, 02:42:04,VALID,916.32,VALID,0,VALID,97.5187,VALID,0,VALID,19.8198,VALID,149,VALID,1.48203,
2010-06-20, 02:43:04,VALID,916.357,VALID,0,VALID,97.5187,VALID,0,VALID,19.8393,VALID,151,VALID,1.42891,
2010-06-20, 02:44:04,VALID,916.34,VALID,0,VALID,97.4882,VALID,0,VALID,19.8588,VALID,142,VALID,1.58594,
2010-06-20, 02:45:04,VALID,916.345,VALID,0,VALID,97.4882,VALID,0.107441,VALID,19.8963,VALID,136,VALID,2.41602,
2010-06-20, 02:46:04,VALID,916.312,VALID,0,VALID,97.4959,VALID,0.107441,VALID,19.9158,VALID,143,VALID,1.71602,
2010-06-20, 02:47:04,VALID,916.316,VALID,0,VALID,97.4959,VALID,0.107441,VALID,19.9158,VALID,183,VALID,1.03203,
2010-06-20, 02:48:04,VALID,916.297,VALID,0,VALID,97.4806,VALID,0.107441,VALID,19.9353,VALID,138,VALID,1.72695,
2010-06-20, 02:49:04,VALID,916.28,VALID,0,VALID,97.473,VALID,0,VALID,19.9353,VALID,138,VALID,1.8125,
2010-06-20, 02:50:04,VALID,916.26,VALID,0,VALID,97.4349,VALID,0.214882,VALID,19.9743,VALID,134,VALID,1.54062,
2010-06-20, 02:51:04,VALID,916.281,VALID,0,VALID,97.4654,VALID,0.107441,VALID,19.9938,VALID,140,VALID,1.59648,
2010-06-20, 02:52:04,VALID,916.252,VALID,0,VALID,97.4425,VALID,0.107441,VALID,19.9533,VALID,132,VALID,1.84375,
2010-06-20, 02:53:04,VALID,916.23,VALID,0,VALID,97.4349,VALID,0.107441,VALID,19.9938,VALID,121,VALID,1.70898,
2010-06-20, 02:54:04,VALID,916.233,VALID,0,VALID,97.412,VALID,0.107441,VALID,20.0133,VALID,133,VALID,2.48984,
2010-06-20, 02:55:04,VALID,916.19,VALID,0,VALID,97.4273,VALID,0.107441,VALID,20.0133,VALID,124,VALID,1.90391,
2010-06-20, 02:56:04,VALID,916.194,VALID,0,VALID,97.412,VALID,0.214882,VALID,20.0523,VALID,140,VALID,1.48203,
2010-06-20, 02:57:04,VALID,916.153,VALID,0,VALID,97.4044,VALID,0.107441,VALID,20.0313,VALID,130,VALID,1.77461,
2010-06-20, 02:58:04,VALID,916.134,VALID,0,VALID,97.3739,VALID,0.107441,VALID,20.0523,VALID,147,VALID,2.49062,
2010-06-20, 02:59:04,VALID,916.143,VALID,0,VALID,97.3891,VALID,0.107441,VALID,20.0718,VALID,124,VALID,2.2832,
2010-06-20, 03:00:04,VALID,916.156,VALID,0,VALID,97.3434,VALID,0,VALID,20.0733,VALID,140,VALID,1.98398,
2010-06-20, 03:01:04,VALID,916.104,VALID,0,VALID,97.3281,VALID,0,VALID,20.0733,VALID,135,VALID,1.56602,
2010-06-20, 03:02:04,VALID,916.128,VALID,0,VALID,97.3281,VALID,0,VALID,20.0733,VALID,117,VALID,1.14922,
2010-06-20, 03:03:04,VALID,916.106,VALID,0,VALID,97.3205,VALID,0,VALID,20.0928,VALID,132,VALID,1.94609,
2010-06-20, 03:04:04,VALID,916.125,VALID,0,VALID,97.29,VALID,0,VALID,20.0928,VALID,136,VALID,2.17734,
2010-06-20, 03:05:04,VALID,916.098,VALID,0,VALID,97.29,VALID,0,VALID,20.0928,VALID,134,VALID,1.4457,
2010-06-20, 03:06:04,VALID,916.081,VALID,0,VALID,97.2595,VALID,0,VALID,20.1123,VALID,133,VALID,1.81992,
2010-06-20, 03:07:04,VALID,916.083,VALID,0,VALID,97.2519,VALID,0,VALID,20.0913,VALID,128,VALID,0.936328,
2010-06-20, 03:08:04,VALID,916.069,VALID,0,VALID,97.2214,VALID,0,VALID,20.0928,VALID,144,VALID,2.02422,
2010-06-20, 03:09:04,VALID,916.061,VALID,0,VALID,97.2214,VALID,0.107441,VALID,20.1123,VALID,153,VALID,1.10547,
2010-06-20, 03:10:04,VALID,916.045,VALID,0,VALID,97.1909,VALID,0,VALID,20.0913,VALID,128,VALID,1.71211,
2010-06-20, 03:11:04,VALID,915.992,VALID,0,VALID,97.1452,VALID,0,VALID,20.0928,VALID,134,VALID,1.61875,
2010-06-20, 03:12:04,VALID,915.983,VALID,0,VALID,97.1147,VALID,0,VALID,20.0733,VALID,136,VALID,1.9875,
2010-06-20, 03:13:04,VALID,915.977,VALID,0,VALID,97.0994,VALID,0,VALID,20.0928,VALID,146,VALID,1.04375,
2010-06-20, 03:14:04,VALID,915.952,VALID,0,VALID,97.1071,VALID,0,VALID,20.0733,VALID,136,VALID,1.1293,
2010-06-20, 03:15:04,VALID,915.911,VALID,0,VALID,97.0537,VALID,0,VALID,20.0733,VALID,120,VALID,1.94766,
2010-06-20, 03:16:04,VALID,915.914,VALID,0,VALID,97.0537,VALID,0,VALID,20.0538,VALID,96,VALID,1.65391,
2010-06-20, 03:17:04,VALID,915.916,VALID,0,VALID,97.0308,VALID,0,VALID,20.0928,VALID,130,VALID,1.27891,
2010-06-20, 03:18:04,VALID,915.912,VALID,0,VALID,97.0232,VALID,0,VALID,20.0928,VALID,137,VALID,1.32539,
2010-06-20, 03:19:04,VALID,915.922,VALID,0,VALID,96.9851,VALID,0,VALID,20.0718,VALID,86,VALID,1.21602,
2010-06-20, 03:20:04,VALID,915.924,VALID,0,VALID,96.947,VALID,0,VALID,20.1123,VALID,121,VALID,1.83984,
2010-06-20, 03:21:04,VALID,915.887,VALID,0,VALID,96.947,VALID,0,VALID,20.1123,VALID,144,VALID,1.43125,
2010-06-20, 03:22:04,VALID,915.857,VALID,0,VALID,96.9165,VALID,0,VALID,20.1123,VALID,93,VALID,1.08281,
2010-06-20, 03:23:04,VALID,915.877,VALID,0,VALID,96.9089,VALID,0.107441,VALID,20.0913,VALID,135,VALID,1.15977,
2010-06-20, 03:24:04,VALID,915.858,VALID,0,VALID,96.8479,VALID,0,VALID,20.1318,VALID,110,VALID,1.69883,
2010-06-20, 03:25:04,VALID,915.851,VALID,0,VALID,96.8021,VALID,0.107441,VALID,20.1123,VALID,117,VALID,1.88555,
2010-06-20, 03:26:04,VALID,915.834,VALID,0,VALID,96.7869,VALID,0,VALID,20.1123,VALID,140,VALID,2.0418,
2010-06-20, 03:27:04,VALID,915.833,VALID,0,VALID,96.7869,VALID,0,VALID,20.1123,VALID,124,VALID,2.13477,
2010-06-20, 03:28:04,VALID,915.832,VALID,0,VALID,96.764,VALID,0,VALID,20.1123,VALID,142,VALID,1.53867,
2010-06-20, 03:29:04,VALID,915.797,VALID,0,VALID,96.7335,VALID,0,VALID,20.0913,VALID,129,VALID,1.88672,
2010-06-20, 03:30:04,VALID,915.763,VALID,0,VALID,96.7335,VALID,0,VALID,20.1334,VALID,129,VALID,1.5582,
2010-06-20, 03:31:04,VALID,915.752,VALID,0,VALID,96.7183,VALID,0,VALID,20.1318,VALID,142,VALID,1.19766,
2010-06-20, 03:32:04,VALID,915.713,VALID,0,VALID,96.703,VALID,0,VALID,20.1108,VALID,125,VALID,1.51992,
2010-06-20, 03:33:04,VALID,915.746,VALID,0,VALID,96.6573,VALID,0,VALID,20.1108,VALID,121,VALID,1.88437,
2010-06-20, 03:34:04,VALID,915.718,VALID,0,VALID,96.6573,VALID,0,VALID,20.1123,VALID,125,VALID,1.61875,
2010-06-20, 03:35:04,VALID,915.749,VALID,0,VALID,96.6878,VALID,0,VALID,20.1123,VALID,149,VALID,0.864062,
2010-06-20, 03:36:04,VALID,915.732,VALID,0,VALID,96.6725,VALID,0,VALID,20.1123,VALID,74,VALID,0.599219,
2010-06-20, 03:37:04,VALID,915.713,VALID,0,VALID,96.6878,VALID,0,VALID,20.0928,VALID,165,VALID,2.56367,
2010-06-20, 03:38:04,VALID,915.682,VALID,0,VALID,96.703,VALID,0,VALID,20.1123,VALID,154,VALID,2.19727,
2010-06-20, 03:39:04,VALID,915.669,VALID,0,VALID,96.6802,VALID,0,VALID,20.1123,VALID,147,VALID,2.36875,
2010-06-20, 03:40:04,VALID,915.665,VALID,0,VALID,96.6573,VALID,0,VALID,20.1513,VALID,150,VALID,2.03398,
2010-06-20, 03:41:04,VALID,915.643,VALID,0,VALID,96.6497,VALID,0,VALID,20.1318,VALID,188,VALID,1.30352,
2010-06-20, 03:42:04,VALID,915.637,VALID,0,VALID,96.6268,VALID,0,VALID,20.1108,VALID,126,VALID,2.40625,
2010-06-20, 03:43:04,VALID,915.589,VALID,0,VALID,96.5811,VALID,0,VALID,20.1513,VALID,140,VALID,2.3582,
2010-06-20, 03:44:04,VALID,915.623,VALID,0,VALID,96.5734,VALID,0,VALID,20.1708,VALID,108,VALID,1.57539,